SPACEMOBILE-SSR03 DEB, 62371

Orbit data source: Space-Track

SPACEMOBILE-SSR03 DEB, 62371 is space debris in LEO originally from a launch on Thu, 12 Sep 2024 UTC launched from the Air Force Eastern Test Range (AFETR). Debris objects in space refer to the collection of defunct objects orbiting the Earth. Examples of debris include non-operational satellites, rocket bodies, and fragments generated from explosions, collisions, or faulty payload assembly.

Loading next visibility...
Identifier
62371, 2024-163H
Orbit
LEO
Country
Flag of USUS
Related business
Manufacturer
AST & Science
Mission
Spacecraft
Bus & Motor
BW3 LVA, Unknown motor
Mass
150 kg wet, 150 kg dry
Launch date (UTC)
2024-09-12 (2 years ago)
Launch vehicle
Unknown
Launch site
Air Force Eastern Test Range (AFETR)
Object type
Payload
Rocket body
Debris
Shape & HBR
Cyl, 3.8 m
Radar Cross Section
1.963 m², Large (>1 m²)

Expand to show TLE details & history
Last TLE update: 18 hours ago

TLE from 18 hours ago
0 SPACEMOBILE-SSR03 DEB
1 62371U 24163H   26251.06981754  .00020285  00000-0  45461-3 0  9991
2 62371  52.9672 237.7126 0009525  61.9793 298.2174 15.43392250104671
Epoch: 2026-09-08T01:40Z
TLE epoch observation values (Epoch: 2026-09-08T01:40:32.235Z)
Latitude
0.00003°
Longitude
-134.56321°
Altitude
433.926 km
Speed
7.654 km/s
True Right ascension
15h 50m 51s
True Declination
0° 00' 00"
Sunlit
Object was in daylight at epoch
Visualization orbit readout
Latitude
Unknown
Longitude
Unknown
Altitude
Unknown
Speed
Unknown
Apparent Right ascension
Unknown
Apparent Declination
Unknown
Sunlit
N/A
Visualization observer readout
Local Sidereal Time
11:24:29
Azimuth
Unknown
Elevation
Unknown
Doppler factor
Unknown
Orbital elements
Apogee altitude
442.886 km
Perigee altitude
429.905 km
Semi-major axis
6,814.532 km
Eccentricity
0.00095
Inclination
52.9672°
RAAN
237.7126°
Arg. of periapsis
61.9793°
True anomaly
298.12117°
Mean anomaly
298.2174°
Eccentric anomaly
298.16929°
Mean motion
3.85824 °/min
Orbital period
93.31 mins
BSTAR
0.00045461
Loading maneuver chart data...
Computing Atmospheric mass density...
Loading historical data...
Loading historical data...
Loading historical data...
Loading historical data...
Loading historical data...
Loading historical data...
Loading historical data...

Documentation

Showing up to 5 results
|